EJA286 KELM-KTEB

Flight info

Callsign EJA286
Flight time N/A
Altitude 23000
Route LOPEZ LVZ LVZ5
Aircraft C700/M-SBDGHM1RWXY/LB2

Departure

Time N/A
Airport Elmira Corning Regional Airport (KELM)

Arrival

Time 2026-05-08 00:27
Airport Teterboro Airport (KTEB)
Time Latitude Longitude Altitude Speed Heading
2026-05-07 23:58 41.61931 -76.22652 22871 ft 480 kts 141°
2026-05-07 23:58 41.59714 -76.19305 22862 ft 482 kts 141°
2026-05-07 23:58 41.57494 -76.15956 22858 ft 481 kts 141°
2026-05-07 23:58 41.55274 -76.12611 22853 ft 481 kts 141°
2026-05-07 23:59 41.53090 -76.09324 22862 ft 481 kts 141°
2026-05-07 23:59 41.50867 -76.05985 22846 ft 480 kts 141°
2026-05-07 23:59 41.48652 -76.02657 22883 ft 480 kts 141°
2026-05-07 23:59 41.46427 -75.99326 22869 ft 483 kts 141°
2026-05-08 00:00 41.44196 -75.95977 22863 ft 483 kts 140°
2026-05-08 00:00 41.42041 -75.92541 22244 ft 478 kts 138°
2026-05-08 00:00 41.40003 -75.89196 21632 ft 452 kts 138°
2026-05-08 00:00 41.38044 -75.86045 21052 ft 434 kts 140°
2026-05-08 00:01 41.36105 -75.83016 20483 ft 428 kts 140°
2026-05-08 00:01 41.34185 -75.79984 19923 ft 428 kts 138°
2026-05-08 00:01 41.32290 -75.76926 19359 ft 427 kts 138°
2026-05-08 00:01 41.30429 -75.73935 18805 ft 422 kts 138°
2026-05-08 00:02 41.28560 -75.70956 18254 ft 418 kts 137°
2026-05-08 00:02 41.26967 -75.67748 17650 ft 412 kts 126°
2026-05-08 00:02 41.25769 -75.64378 17220 ft 394 kts 120°
2026-05-08 00:02 41.24686 -75.61109 16706 ft 381 kts 121°
2026-05-08 00:03 41.23606 -75.57927 16183 ft 375 kts 120°
2026-05-08 00:03 41.22541 -75.54764 15659 ft 375 kts 120°
2026-05-08 00:03 41.21489 -75.51593 15136 ft 375 kts 119°
2026-05-08 00:03 41.20438 -75.48441 14616 ft 372 kts 119°
2026-05-08 00:04 41.19389 -75.45320 14099 ft 368 kts 118°
2026-05-08 00:04 41.18352 -75.42237 13579 ft 364 kts 118°
2026-05-08 00:04 41.17328 -75.39190 13051 ft 359 kts 118°
2026-05-08 00:04 41.16319 -75.36186 12556 ft 353 kts 118°
2026-05-08 00:05 41.15325 -75.33236 12062 ft 348 kts 118°
2026-05-08 00:05 41.14353 -75.30358 11584 ft 344 kts 117°
2026-05-08 00:05 41.13382 -75.27478 11114 ft 339 kts 117°
2026-05-08 00:05 41.12437 -75.24675 10648 ft 327 kts 117°
2026-05-08 00:06 41.11546 -75.22042 10210 ft 301 kts 117°
2026-05-08 00:06 41.10708 -75.19560 9796 ft 291 kts 117°
2026-05-08 00:06 41.09873 -75.17111 9372 ft 292 kts 116°
2026-05-08 00:06 41.09042 -75.14654 8959 ft 291 kts 116°
2026-05-08 00:07 41.08214 -75.12216 8555 ft 289 kts 116°
2026-05-08 00:07 41.07392 -75.09798 8160 ft 286 kts 116°
2026-05-08 00:07 41.06579 -75.07399 7755 ft 285 kts 116°
2026-05-08 00:07 41.05773 -75.05035 7359 ft 278 kts 116°
2026-05-08 00:08 41.04995 -75.02749 6978 ft 274 kts 116°
2026-05-08 00:08 41.04205 -75.00435 6594 ft 271 kts 116°
2026-05-08 00:08 41.03441 -74.98192 6217 ft 269 kts 115°
2026-05-08 00:08 41.02679 -74.95961 6024 ft 261 kts 115°
2026-05-08 00:09 41.01925 -74.93749 6020 ft 268 kts 115°
2026-05-08 00:09 41.01153 -74.91500 6024 ft 268 kts 115°
2026-05-08 00:09 41.00386 -74.89256 6021 ft 268 kts 115°
2026-05-08 00:09 40.99615 -74.87006 6021 ft 269 kts 115°
2026-05-08 00:10 40.98994 -74.84669 6018 ft 269 kts 105°
2026-05-08 00:10 40.98236 -74.82436 6005 ft 267 kts 130°
2026-05-08 00:10 40.96855 -74.80926 5250 ft 258 kts 152°
2026-05-08 00:10 40.95233 -74.79879 4529 ft 254 kts 156°
2026-05-08 00:11 40.93621 -74.78935 4265 ft 255 kts 157°
2026-05-08 00:11 40.91978 -74.77997 4026 ft 258 kts 158°
2026-05-08 00:11 40.90366 -74.77087 4013 ft 255 kts 158°
2026-05-08 00:11 40.88720 -74.76158 4016 ft 259 kts 158°
2026-05-08 00:12 40.87063 -74.75223 4014 ft 259 kts 158°
2026-05-08 00:12 40.85430 -74.74304 4009 ft 248 kts 158°
2026-05-08 00:12 40.83901 -74.73440 3996 ft 231 kts 158°
2026-05-08 00:12 40.82456 -74.72614 3957 ft 224 kts 158°
2026-05-08 00:13 40.81003 -74.71790 3692 ft 230 kts 158°
2026-05-08 00:13 40.79531 -74.70966 3429 ft 229 kts 158°
2026-05-08 00:13 40.78070 -74.70158 3175 ft 227 kts 158°
2026-05-08 00:13 40.76618 -74.69358 3010 ft 222 kts 158°
2026-05-08 00:14 40.75218 -74.68585 2996 ft 215 kts 158°
2026-05-08 00:14 40.73869 -74.67842 2968 ft 205 kts 158°
2026-05-08 00:14 40.72617 -74.67148 2871 ft 190 kts 158°
2026-05-08 00:14 40.71400 -74.66473 2606 ft 193 kts 158°
2026-05-08 00:15 40.70158 -74.65794 2338 ft 193 kts 158°
2026-05-08 00:15 40.68912 -74.65122 2067 ft 194 kts 158°
2026-05-08 00:15 40.67693 -74.64470 2002 ft 185 kts 158°
2026-05-08 00:15 40.66483 -74.63819 2000 ft 191 kts 158°
2026-05-08 00:16 40.65242 -74.63145 1998 ft 193 kts 158°
2026-05-08 00:16 40.64005 -74.62477 1997 ft 195 kts 158°
2026-05-08 00:16 40.62865 -74.61522 1993 ft 195 kts 128°
2026-05-08 00:16 40.62482 -74.59892 1998 ft 188 kts 84°
2026-05-08 00:17 40.62707 -74.58204 2001 ft 187 kts 77°
2026-05-08 00:17 40.62926 -74.56538 1996 ft 189 kts 78°
2026-05-08 00:17 40.63156 -74.54842 1999 ft 187 kts 77°
2026-05-08 00:17 40.63389 -74.53163 2001 ft 186 kts 77°
2026-05-08 00:18 40.63616 -74.51489 2010 ft 186 kts 77°
2026-05-08 00:18 40.63856 -74.49786 1993 ft 191 kts 77°
2026-05-08 00:18 40.64087 -74.48095 1995 ft 185 kts 78°
2026-05-08 00:18 40.64310 -74.46428 1999 ft 185 kts 78°
2026-05-08 00:19 40.64540 -74.44764 2020 ft 185 kts 78°
2026-05-08 00:19 40.64777 -74.43075 2018 ft 189 kts 77°
2026-05-08 00:19 40.65010 -74.41392 2010 ft 184 kts 78°
2026-05-08 00:19 40.65237 -74.39746 2026 ft 189 kts 78°
2026-05-08 00:20 40.65473 -74.38036 2029 ft 187 kts 74°
2026-05-08 00:20 40.65946 -74.36467 2016 ft 183 kts 65°
2026-05-08 00:20 40.66410 -74.34919 2013 ft 183 kts 66°
2026-05-08 00:20 40.66907 -74.33374 2010 ft 183 kts 60°
2026-05-08 00:21 40.67688 -74.32046 2010 ft 184 kts 45°
2026-05-08 00:21 40.68541 -74.30757 2015 ft 186 kts 48°
2026-05-08 00:21 40.69382 -74.29497 2024 ft 183 kts 46°
2026-05-08 00:21 40.70233 -74.28273 2015 ft 180 kts 46°
2026-05-08 00:22 40.71059 -74.27024 2012 ft 181 kts 46°
2026-05-08 00:22 40.71918 -74.25802 2017 ft 182 kts 45°
2026-05-08 00:22 40.72752 -74.24540 2011 ft 183 kts 46°
2026-05-08 00:22 40.73608 -74.23308 2013 ft 182 kts 44°
2026-05-08 00:23 40.74436 -74.22089 2008 ft 180 kts 46°
2026-05-08 00:23 40.75240 -74.20881 2001 ft 170 kts 46°
2026-05-08 00:23 40.76024 -74.19773 1988 ft 162 kts 45°
2026-05-08 00:23 40.76760 -74.18675 2002 ft 159 kts 47°
2026-05-08 00:24 40.77489 -74.17579 1984 ft 157 kts 45°
2026-05-08 00:24 40.78228 -74.16534 1931 ft 160 kts 45°
2026-05-08 00:24 40.78944 -74.15454 1709 ft 153 kts 46°
2026-05-08 00:24 40.79622 -74.14463 1524 ft 133 kts 45°
2026-05-08 00:25 40.80219 -74.13593 1337 ft 131 kts 46°
2026-05-08 00:25 40.80798 -74.12720 1158 ft 122 kts 45°
2026-05-08 00:25 40.81337 -74.11935 1006 ft 112 kts 44°
2026-05-08 00:25 40.81857 -74.11179 838 ft 107 kts 45°
2026-05-08 00:26 40.82373 -74.10417 718 ft 123 kts 45°
2026-05-08 00:26 40.82912 -74.09612 552 ft 115 kts 47°
2026-05-08 00:26 40.83440 -74.08843 415 ft 113 kts 45°
2026-05-08 00:26 40.83984 -74.08050 251 ft 118 kts 45°
2026-05-08 00:27 40.84533 -74.07236 72 ft 120 kts 45°
2026-05-08 00:27 40.85039 -74.06488 14 ft 89 kts 45°
2026-05-08 00:27 40.85261 -74.06172 10 ft 32 kts 48°
2026-05-08 00:27 40.85408 -74.05957 9 ft 36 kts 49°
2026-05-08 00:28 40.85537 -74.05758 12 ft 25 kts 57°
2026-05-08 00:28 40.85548 -74.05633 14 ft 6 kts 98°
2026-05-08 00:28 40.85515 -74.05590 14 ft 10 kts 185°
2026-05-08 00:28 40.85459 -74.05659 12 ft 9 kts 227°
2026-05-08 00:29 40.85417 -74.05721 12 ft 6 kts 228°
2026-05-08 00:29 40.85380 -74.05774 11 ft 5 kts 227°
2026-05-08 00:29 40.85345 -74.05825 10 ft 11 kts 229°
2026-05-08 00:29 40.85283 -74.05918 8 ft 15 kts 228°
2026-05-08 00:30 40.85210 -74.06026 10 ft 15 kts 229°
2026-05-08 00:30 40.85141 -74.06127 10 ft 13 kts 229°
2026-05-08 00:30 40.85074 -74.06224 12 ft 15 kts 228°
2026-05-08 00:30 40.84998 -74.06337 14 ft 18 kts 227°
2026-05-08 00:31 40.84928 -74.06439 14 ft 8 kts 227°
2026-05-08 00:31 40.84884 -74.06506 15 ft 11 kts 228°
2026-05-08 00:31 40.84822 -74.06597 14 ft 16 kts 229°
2026-05-08 00:31 40.84777 -74.06663 12 ft 6 kts 226°
2026-05-08 00:32 40.84734 -74.06723 12 ft 12 kts 227°
2026-05-08 00:32 40.84700 -74.06770 12 ft 8 kts 218°
2026-05-08 00:32 40.84641 -74.06751 12 ft 12 kts 136°
2026-05-08 00:32 40.84594 -74.06697 12 ft 10 kts 141°
2026-05-08 00:33 40.84548 -74.06643 12 ft 10 kts 138°
2026-05-08 00:33 40.84508 -74.06581 12 ft 7 kts 136°
2026-05-08 00:33 40.84470 -74.06551 12 ft 4 kts 177°
2026-05-08 00:33 40.84451 -74.06558 12 ft 0 kts 200°
2026-05-08 00:34 40.84442 -74.06562 12 ft 1 kts 200°